Lapse_Rate
8.5 8.7 8.8 8.6 8.2 9.2 9.2 9.3 9.1 8.9 8.2 8.0 7.8 8.8 9.1 9.3 9.4 8.9 6.7 9.4 9.2 6.2 4.8 4.0 3.7 3.5 3.3 3.4 3.5 4.7 4.4 3.7 3.4 3.3 2.0 1.7 2.2 2.5 2.6 5.4 7.2 6.2 6.9
8.2 8.5 8.7 8.9 9.0 9.1 9.2 8.9 8.8 8.0 8.3 8.4 8.3 7.7 6.6 6.6 7.6 6.1 5.3 7.4 9.5 6.5 5.6 4.3 3.7 3.8 3.5 2.7 4.2 4.6 3.9 3.5 2.9 3.8 4.4 3.8 3.1 2.6 2.6 3.1 3.9 4.2 4.4
8.0 8.3 8.5 8.7 8.9 8.9 8.2 7.7 7.8 7.4 7.4 7.7 7.5 8.3 8.3 7.8 5.9 6.1 7.6 7.5 8.6 8.6 6.4 4.9 4.4 3.7 4.2 3.9 4.5 4.3 4.7 4.6 3.8 4.2 4.5 4.8 5.1 2.9 2.4 3.1 3.4 3.1 4.1
8.3 8.4 8.5 8.6 8.8 8.9 8.3 7.6 7.8 7.5 8.3 7.4 7.3 7.8 8.4 6.4 6.8 6.8 6.9 7.5 8.3 8.3 7.3 6.0 5.2 4.7 4.5 3.6 4.1 4.5 5.4 5.2 4.2 4.5 3.9 4.5 3.4 5.3 4.1 2.2 1.8 2.2 3.6
8.2 8.2 8.4 8.7 8.9 9.1 9.0 8.8 8.4 8.1 8.1 7.6 7.3 7.4 8.1 7.9 6.8 7.4 8.2 7.7 7.4 8.2 7.9 7.0 6.1 5.2 4.6 4.5 4.5 4.8 5.2 6.0 5.5 4.8 3.0 3.7 3.4 4.4 4.2 4.3 3.4 1.8 2.5
8.2 8.4 8.7 8.8 8.9 9.1 9.1 8.9 8.3 7.8 8.1 7.9 7.8 7.2 7.6 8.2 8.1 7.1 7.3 7.7 7.9 7.3 7.5 7.1 6.3 6.2 5.5 5.2 5.2 5.6 5.0 5.2 5.8 4.8 4.0 4.3 4.9 5.0 5.3 4.9 4.5 4.3 3.8
8.2 8.3 8.4 8.6 8.7 8.8 8.9 9.1 9.0 8.0 8.2 8.2 8.4 8.2 7.6 7.8 7.4 8.1 7.8 7.6 8.3 7.2 6.7 7.1 6.1 6.2 6.1 5.9 6.1 5.6 5.4 4.9 5.1 4.8 5.2 4.0 3.8 4.0 4.4 4.7 4.3 5.6 5.5
8.2 8.2 8.4 8.6 8.7 8.8 9.0 9.0 9.0 8.6 8.1 8.5 8.2 7.5 7.5 8.0 8.3 7.8 7.3 7.4 7.8 8.4 7.3 6.0 6.2 5.8 5.2 5.8 5.3 5.1 5.3 5.3 4.9 4.6 3.5 3.3 2.6 2.8 2.6 3.4 3.6 5.4 5.2
8.1 8.2 8.4 8.6 8.6 8.6 8.9 9.0 9.0 9.0 8.5 7.8 7.2 7.6 7.5 7.3 6.7 7.4 7.4 6.9 7.5 7.9 7.4 6.9 6.1 5.8 5.8 5.4 5.3 5.1 5.2 5.3 4.9 3.8 3.8 4.0 3.1 2.7 2.9 3.5 4.4 4.3 4.3
8.1 8.3 8.4 8.6 8.9 8.7 8.7 8.9 9.0 8.9 9.0 8.3 7.9 7.7 6.8 6.4 5.4 6.7 7.4 6.8 6.5 6.5 5.8 6.2 6.6 6.2 5.4 4.9 4.5 4.7 4.8 5.2 5.0 4.5 4.3 4.1 3.0 3.1 2.8 2.8 3.0 3.7 4.9
8.0 8.3 8.5 8.7 8.7 8.6 8.9 8.0 8.7 8.9 8.9 8.3 7.7 6.9 6.2 5.9 5.1 5.1 5.8 6.4 6.8 6.5 6.0 6.1 5.8 5.5 5.4 5.5 4.3 4.1 4.5 4.7 4.7 4.3 4.3 3.1 2.8 2.8 2.9 2.3 2.4 2.6 3.6
8.1 8.3 8.5 8.6 8.7 8.8 8.8 8.9 8.9 8.4 7.8 8.2 8.0 7.0 6.4 5.6 4.9 5.4 5.4 5.7 6.4 6.8 6.7 6.1 5.7 5.7 5.7 5.1 5.2 4.6 4.2 4.2 3.7 3.5 3.5 2.2 2.5 2.1 2.5 2.4 1.8 2.4 2.6
8.1 8.3 8.5 8.5 8.6 8.7 8.9 9.0 9.1 8.7 7.2 6.7 7.5 7.0 6.8 5.4 4.5 4.6 5.7 5.8 5.3 5.4 5.6 6.0 6.0 5.2 4.9 4.3 4.7 4.3 4.1 3.9 3.6 3.2 2.9 1.7 1.9 1.2 1.4 1.7 1.9 2.3 3.1
8.1 8.3 8.4 8.5 8.6 8.9 8.9 9.1 9.0 8.4 7.8 6.5 6.3 6.1 6.1 4.9 4.2 4.2 5.2 5.1 5.2 5.5 5.2 5.3 4.7 4.2 4.3 4.1 4.0 3.5 3.7 3.2 2.8 2.6 2.7 1.9 1.9 1.4 1.2 1.8 2.0 2.5 2.9
7.9 8.1 8.2 8.4 8.6 8.9 9.1 9.3 8.6 8.3 7.8 6.4 6.1 5.4 5.1 4.8 4.0 4.1 4.5 4.8 5.1 4.4 4.0 4.2 3.8 3.7 3.7 3.2 3.2 2.8 2.2 1.1 0.2 0.2 0.6 0.8 1.1 1.7 2.2 2.2 2.5 3.4 4.1
7.9 8.2 8.4 8.5 8.6 8.8 9.2 9.2 8.8 8.4 7.5 7.0 6.0 5.4 4.8 4.7 3.8 2.8 2.8 3.0 2.6 2.5 2.6 3.2 2.8 2.8 2.7 3.0 3.1 2.2 1.5 0.8 0.5 0.2 0.6 1.0 1.7 2.3 3.5 3.8 4.9 5.7 5.7
8.0 8.2 8.4 8.6 8.9 9.1 9.3 9.1 9.1 8.3 7.4 7.2 6.3 5.2 4.6 4.7 3.8 3.2 2.5 2.3 2.2 2.2 2.1 2.2 2.2 1.9 2.1 3.2 2.8 1.8 1.2 0.7 0.4 1.0 0.9 1.6 2.4 2.4 3.3 3.9 4.7 4.5 5.3
8.2 8.4 8.9 9.0 9.2 9.3 9.2 9.3 9.0 8.3 7.4 7.1 6.4 5.1 4.5 4.7 4.6 3.9 3.4 2.7 2.4 2.5 2.5 2.3 2.3 2.3 3.0 3.3 2.3 1.4 1.0 0.9 1.3 1.7 1.6 1.4 1.6 2.7 2.8 4.1 2.8 2.1 2.6
8.6 8.9 9.2 9.2 9.5 9.4 9.4 9.1 9.0 8.3 7.9 7.3 6.1 5.0 4.4 4.8 5.0 4.2 4.1 3.6 3.1 3.1 3.2 3.3 3.2 3.3 3.1 2.7 1.8 1.1 1.1 0.7 1.4 1.7 1.8 2.2 2.2 4.1 4.3 2.9 2.4 2.1 1.8
8.9 9.1 9.1 9.4 9.3 9.4 9.5 9.2 9.1 8.7 8.4 7.7 5.7 4.7 4.3 4.7 4.8 4.9 4.4 4.0 4.0 3.9 3.9 3.5 3.7 4.2 3.0 3.1 2.4 1.8 1.6 1.3 1.4 2.4 3.5 3.9 3.5 4.0 4.7 3.0 2.6 3.2 2.2
8.9 9.1 9.2 9.3 9.2 9.5 9.4 9.1 9.2 8.7 8.8 7.7 5.4 4.5 4.0 4.5 4.5 4.7 4.4 4.0 3.6 3.5 3.4 3.6 3.8 3.5 3.3 3.2 3.6 2.9 1.7 1.8 3.0 3.4 4.3 4.8 5.7 5.0 6.2 5.4 3.5 2.2 2.4
8.9 8.9 9.3 9.3 9.2 9.5 9.5 9.2 9.0 9.1 9.0 8.4 5.4 4.3 3.5 4.2 4.8 4.8 4.2 3.4 3.1 2.7 2.8 3.1 3.6 4.1 4.2 4.0 4.1 3.5 3.1 3.7 3.4 4.1 5.2 6.5 6.2 5.2 5.0 4.2 4.2 3.8 3.2
9.2 9.3 9.3 9.2 9.2 9.4 9.3 9.2 9.3 9.4 9.0 8.3 5.8 4.0 3.2 3.5 5.0 4.9 4.0 3.4 3.2 3.0 3.1 3.5 3.8 4.5 4.8 4.5 4.8 4.5 4.3 5.0 3.9 3.8 4.3 4.8 5.3 5.1 4.5 4.5 4.1 3.8 3.2
9.2 9.4 9.1 8.9 9.0 9.3 9.3 9.4 9.5 9.5 9.0 7.5 5.6 3.9 3.5 3.7 4.7 4.7 4.3 3.6 3.1 3.1 3.1 3.4 3.7 4.2 4.2 4.2 4.2 4.5 4.2 4.3 4.5 5.2 5.3 4.8 4.3 4.1 3.8 3.3 3.3 3.2 3.1
9.3 9.4 9.3 9.1 9.2 9.6 9.4 9.4 9.4 9.4 8.4 7.2 5.3 3.6 3.7 4.3 4.3 4.3 4.1 3.8 3.4 3.3 3.0 3.4 3.5 3.9 4.3 4.3 4.0 3.7 4.0 4.5 4.8 4.0 3.6 3.2 2.9 2.7 2.7 2.7 2.7 2.6 2.6
9.1 9.1 9.1 9.3 9.2 9.4 9.3 9.5 9.4 9.3 8.0 6.9 5.3 4.1 3.9 3.8 3.8 3.5 3.3 4.1 4.2 4.1 3.9 3.8 3.8 4.5 4.5 4.7 4.6 5.3 5.7 5.8 4.4 3.3 2.7 3.0 3.1 2.9 2.8 2.7 2.5 2.6 2.5
Wind_Speed
7 4 4 4 4 6 7 9 10 10 8 7 8 8 7 6 6 3 11 10 8 12 10 5 5 7 6 4 5 3 10 5 6 5 5 5 7 5 6 8 9 9 6
7 6 6 5 5 5 8 9 10 10 9 7 7 6 7 6 7 5 9 14 10 10 8 7 7 8 6 8 8 8 3 3 8 3 2 3 2 3 4 3 4 6 7
9 10 9 7 6 7 8 8 9 9 9 10 7 7 5 5 3 5 6 6 11 8 10 9 7 8 8 9 12 11 11 5 6 6 3 3 4 3 0 2 2 3 3
12 11 11 11 10 8 7 8 9 10 9 10 9 12 8 8 7 6 6 6 9 8 10 10 9 8 7 9 8 6 9 6 8 3 1 2 5 3 3 1 0 2 3
12 13 13 12 11 8 8 9 10 11 12 11 10 9 10 7 5 6 8 7 4 7 8 11 7 9 8 10 10 10 11 9 9 8 3 1 1 2 3 4 4 1 3
12 13 13 12 11 9 9 10 11 12 13 12 12 12 13 12 9 6 5 5 5 4 8 7 6 8 8 9 10 12 12 8 8 8 7 5 4 3 3 3 5 5 4
13 13 14 13 12 12 12 12 14 14 13 14 13 12 13 14 13 11 6 6 5 6 6 9 7 6 8 9 10 10 9 9 7 11 7 4 3 3 2 3 3 3 3
12 13 14 13 14 15 15 15 15 15 14 14 14 12 13 8 9 11 6 6 5 6 9 7 7 7 6 7 8 8 8 10 8 9 7 5 4 3 3 3 5 2 2
11 12 12 11 12 13 15 16 16 15 15 14 12 11 10 10 10 12 10 5 6 7 7 8 9 8 7 8 8 5 9 9 8 9 9 7 5 4 4 4 6 5 3
12 12 11 12 12 12 11 15 15 15 15 15 13 11 10 10 11 12 12 8 6 6 5 6 7 8 8 8 8 6 6 9 7 8 10 9 6 6 5 4 3 3 2
10 11 11 11 9 10 11 12 14 15 14 14 13 14 12 12 11 11 10 8 6 6 7 6 6 8 8 9 8 7 8 10 7 8 10 8 9 6 5 4 3 3 3
10 10 9 10 11 11 12 14 14 14 13 13 14 14 14 13 12 11 5 6 6 6 8 7 7 7 7 8 8 8 7 8 9 9 9 9 7 8 7 5 5 5 4
12 11 11 12 12 13 13 13 13 13 12 14 14 14 14 12 12 12 6 6 6 6 5 3 7 7 7 7 7 7 7 8 9 9 10 10 11 7 6 6 6 5 4
10 12 13 14 15 14 13 14 14 13 13 12 13 14 14 13 12 11 8 5 5 6 6 6 7 7 7 7 7 7 6 6 6 6 7 9 10 12 10 7 7 6 5
12 13 15 16 16 14 14 14 14 13 13 12 12 13 13 12 12 8 5 3 3 4 4 4 4 4 6 5 7 6 7 8 9 8 8 6 9 14 11 7 7 8 5
13 15 19 17 16 16 15 15 14 13 13 12 12 12 12 11 10 7 5 3 2 2 1 1 4 5 2 9 12 10 8 9 10 10 11 11 15 15 16 18 11 8 7
15 18 19 16 15 15 16 15 14 14 13 12 11 11 11 11 8 7 4 3 1 0 1 2 3 4 4 12 15 16 9 9 9 11 12 11 10 15 13 21 21 19 16
19 20 16 17 17 16 17 14 13 14 13 13 11 10 10 11 7 6 4 2 1 1 2 3 4 5 5 15 18 19 12 11 11 10 12 14 13 12 13 12 13 11 8
19 17 17 19 18 17 16 14 14 14 13 12 10 9 9 10 6 5 3 0 2 2 2 3 6 8 9 18 22 19 13 13 12 11 11 12 13 18 19 13 13 11 10
18 18 20 19 18 17 16 15 15 14 13 12 10 9 9 9 5 3 1 1 3 4 4 6 7 14 11 18 20 18 11 13 10 10 11 17 14 20 18 11 10 11 9
21 20 19 17 17 16 16 16 15 13 12 11 9 8 8 8 4 1 2 3 6 7 8 9 8 9 10 13 19 21 11 10 9 8 7 8 19 17 15 13 8 11 9
21 21 17 16 17 16 15 15 14 13 13 12 7 7 7 6 3 3 3 5 7 8 8 8 7 6 8 16 19 21 19 18 11 10 8 10 17 16 15 10 18 17 12
18 17 16 17 17 16 15 16 14 13 13 13 7 6 6 5 2 3 5 5 6 6 6 6 6 6 6 8 23 23 23 21 11 8 14 20 17 18 15 19 17 12 4
17 16 17 18 17 16 16 15 15 13 13 13 6 4 5 4 3 3 4 4 5 6 6 7 7 6 6 7 8 9 10 18 12 18 13 14 14 14 14 9 7 4 4
16 16 16 17 18 16 16 15 15 13 12 11 4 3 3 3 2 3 3 4 3 5 6 6 7 8 8 7 12 12 9 9 13 13 8 7 6 7 5 5 5 5 4
17 17 17 17 17 16 16 14 14 12 12 10 4 3 3 2 3 3 4 7 9 12 12 13 9 7 13 21 20 20 21 22 22 9 8 7 6 5 5 5 5 4 5
Wind_Direction
117 99 63 18 356 359 352 349 344 342 336 337 332 330 317 315 300 272 286 254 233 181 206 184 169 172 159 155 136 117 140 117 138 120 97 61 24 30 17 28 98 87 94
108 56 22 8 3 350 359 349 349 345 336 330 327 318 307 303 315 295 283 276 234 150 187 188 179 178 162 152 168 151 161 107 177 144 152 135 82 7 54 7 63 120 116
57 33 16 6 350 354 354 349 349 346 341 336 319 308 301 277 248 288 266 253 267 194 199 189 184 182 184 179 184 173 178 171 200 196 152 149 160 146 108 128 112 107 107
16 7 355 355 347 350 349 346 346 340 337 336 323 314 311 298 298 295 305 291 246 235 206 197 184 185 180 183 185 190 190 164 182 211 310 306 130 168 153 173 302 112 147
11 5 356 346 337 348 346 347 343 340 337 331 324 313 301 285 261 283 273 263 286 264 246 214 190 187 185 193 193 193 201 189 184 200 158 174 79 130 135 155 180 202 206
13 9 359 352 351 359 351 343 339 336 334 328 321 313 304 294 291 245 259 264 243 236 233 221 216 192 191 189 188 188 203 200 192 199 187 181 176 177 146 123 157 165 176
15 10 8 8 7 358 350 344 340 334 336 330 324 317 307 299 284 282 270 261 234 226 222 218 217 214 189 189 197 203 196 199 202 190 194 180 144 115 111 101 120 161 135
14 12 8 3 357 352 350 343 339 335 336 336 329 321 312 302 289 283 272 270 278 238 215 210 209 204 193 196 194 192 197 205 197 182 167 165 147 114 118 130 130 84 155
4 5 3 358 354 347 350 345 338 335 338 336 329 318 318 311 304 291 266 261 268 256 256 202 203 198 196 201 203 198 192 197 187 180 180 180 159 153 143 151 159 135 157
6 4 357 354 355 355 348 342 338 338 338 335 326 321 310 301 292 290 280 250 248 246 229 220 206 198 192 190 191 197 202 199 190 189 182 180 161 152 163 146 90 117 142
4 4 359 352 350 337 342 342 337 341 338 337 331 322 317 309 299 277 267 261 237 233 221 215 199 199 201 199 192 193 192 199 194 185 186 170 154 154 144 136 141 119 118
356 346 349 351 352 347 336 340 330 335 336 331 332 322 315 314 305 299 251 256 268 239 222 201 203 209 193 194 194 191 187 184 177 180 176 164 153 149 145 135 131 146 115
335 337 344 343 341 338 337 334 333 330 325 328 329 325 317 313 307 305 272 248 240 232 247 219 196 195 195 189 189 187 187 180 174 172 172 163 149 134 132 132 132 122 118
338 343 340 334 333 332 331 327 328 327 326 327 325 323 322 313 301 295 275 248 246 242 234 212 199 193 189 185 181 175 175 162 156 164 164 158 161 147 146 139 129 124 124
317 329 333 329 328 328 325 323 323 324 325 323 323 321 320 315 315 296 309 308 270 243 225 201 196 180 176 168 164 152 138 125 108 96 96 98 114 127 136 131 131 126 122
312 326 325 326 325 325 322 319 319 320 320 318 320 320 322 323 322 319 327 328 348 350 342 178 163 149 149 166 156 139 133 127 125 117 108 106 107 111 115 113 118 114 130
327 322 320 320 317 317 318 314 314 318 317 315 319 320 322 322 317 322 319 315 346 60 127 124 127 123 123 157 143 133 122 121 123 125 121 113 112 106 102 93 87 80 79
321 316 315 314 313 315 308 309 316 313 312 312 314 315 320 319 318 312 314 319 32 98 151 131 130 122 143 146 135 125 115 111 110 115 118 115 109 104 102 96 82 79 80
313 310 310 309 310 307 306 317 313 310 311 311 313 312 315 312 303 307 294 316 110 111 111 126 127 130 124 138 135 119 113 107 102 104 109 110 110 124 119 108 107 103 97
313 311 309 307 304 309 312 311 307 307 308 316 314 308 312 311 294 289 240 71 98 94 88 84 103 120 125 134 132 120 118 109 108 106 111 117 123 125 121 120 131 116 109
311 311 307 304 307 309 310 302 300 305 312 314 310 305 317 314 287 224 114 112 102 96 89 88 91 102 120 133 130 122 115 117 116 112 116 122 119 122 126 120 111 118 125
312 310 307 306 308 307 303 299 302 305 311 312 307 304 316 310 275 149 111 104 107 102 97 98 97 106 120 126 123 116 113 118 113 114 116 123 120 122 115 108 122 125 121
308 309 308 306 306 304 304 301 303 307 308 310 302 304 312 299 251 144 130 124 121 122 118 116 111 103 106 116 119 116 117 119 109 112 121 127 126 116 111 118 119 115 111
310 311 309 306 306 306 302 298 303 303 303 307 288 297 294 279 232 133 144 147 147 139 137 132 124 119 118 119 119 115 116 114 113 123 120 122 115 114 114 108 97 89 93
310 310 306 301 298 300 300 299 299 300 300 302 272 280 277 255 191 135 160 158 151 153 145 140 136 137 135 137 129 127 125 127 127 121 116 113 110 112 111 104 102 98 91
308 304 302 300 300 300 299 297 296 295 297 298 272 252 241 213 175 144 114 122 134 135 131 133 137 133 134 135 134 135 132 133 132 122 127 127 126 129 130 127 118 106 108